Regional Weather Roundup
Issued by NWS

Home | Current Version | Previous Version | Text Only | Print | Product List | Glossary On
Versions: 1 2 3 4 5 6 7 8 9 10 11 12 13 14 15 16 17 18 19 20 21 22 23 24 25 26 27 28
000
ASUS45 KCYS 282110
RWRWY

WYOMING REGIONAL WEATHER ROUNDUP
NATIONAL WEATHER SERVICE CHEYENNE WY
300 PM MDT TUE MAR 28 2017

NOTE:  "FAIR" INDICATES FEW OR NO CLOUDS BELOW 12,000 FEET
WITH NO SIGNIFICANT WEATHER AND/OR OBSTRUCTIONS TO VISIBILITY.

WYZ001-282200-
YELLOWSTONE NATIONAL PARK

CITY           SKY/WX    TMP DP  RH WIND       PRES   REMARKS
LK YELLOWSTONE   N/A     36  19  50 E5        30.13S WCI  32
W YELLOWSTONE  NOT AVBL

$$
WYZ002>013-054>058-071-098>099-282200-
NORTHERN WYOMING

CITY           SKY/WX    TMP DP  RH WIND       PRES   REMARKS
JACKSON        NOT AVBL
CODY           PTSUNNY   47  29  49 N10       30.10F
GREYBULL       FAIR      54  31  41 NW16G26   30.05F
WORLAND        CLOUDY    49  36  61 N9        30.07F
SHERIDAN       CLOUDY    44  37  76 NW13      30.11F
BUFFALO        CLOUDY    45  35  68 N24       30.08S
GILLETTE       CLOUDY    47  37  68 N20       30.05F
HULETT         CLOUDY    50  37  62 N12       30.03S
NEWCASTLE      RAIN      45  41  87 SE9       30.03S

$$
WYZ014>020-022>026-101>103-282200-
CENTRAL WYOMING

CITY           SKY/WX    TMP DP  RH WIND       PRES   REMARKS
BIG PINEY      FAIR      47  21  35 N17G24    30.06S
PINEDALE       FAIR      45  21  39 NW18G29   30.06S
DUBOIS         FAIR      45  28  53 SE10G20   30.04F
LANDER         CLOUDY    45  36  70 CALM      30.06F
RIVERTON       FAIR      49  31  49 N16G22    30.06F
CASPER         CLOUDY    42  35  76 N21       30.03F
DOUGLAS        CLOUDY    41  38  89 N16       30.02S

$$
WYZ021-027>030-104>119-282200-
SOUTHERN WYOMING

CITY           SKY/WX    TMP DP  RH WIND       PRES   REMARKS
EVANSTON       FAIR      43  23  45 N22G28    30.09S
KEMMERER         N/A     41  28  60 W15       30.08S
FORT BRIDGER   CLOUDY    46  30  53 NW8       30.10S
ROCK SPRINGS   CLOUDY    39  31  72 N9        30.06F WCI  33
DIXON            N/A     46  33  59 N24G35    29.98R
RAWLINS        CLOUDY    39  32  76 N20       30.01S WCI  29
SARATOGA       LGT RAIN  37  37 100 N17G28    29.98S WCI  28
LARAMIE        LGT RAIN  38  35  89 N14       29.93R WCI  30
CHEYENNE       CLOUDY    41  38  89 N20G25    29.90S
TORRINGTON     LGT RAIN  44  43  96 E13       29.95R FOG
PINE BLUFFS    CLOUDY    45  43  93 E10       29.91R

$$




USA.gov is the U.S. government's official web portal to all federal, state and local government web resources and services.